| time (UTC) | temp F | wind direction | speed MPH | gust MPH | rain 1hr in | rain 24hr in | rain mn in | humidity % | barometer mb |
| 20260506000211 | 47 | 144 | 1.0 | 0.0 | 0.00 | 0.00 | 0.00 | 91 | 1008.5 |
| 20260505233209 | 48 | 160 | 7.0 | 0.0 | 0.00 | 0.00 | 0.00 | 91 | 1008.8 |
| 20260505230209 | 48 | 142 | 6.0 | 0.0 | 0.00 | 0.00 | 0.00 | 91 | 1008.7 |
| 20260505223210 | 48 | 175 | 4.0 | 0.0 | 0.00 | 0.00 | 0.00 | 91 | 1008.9 |
| 20260505220209 | 49 | 161 | 5.0 | 0.0 | 0.00 | 0.00 | 0.00 | 90 | 1008.8 |
| 20260505213211 | 50 | 167 | 4.0 | 0.0 | 0.00 | 0.00 | 0.16 | 89 | 1008.7 |
| 20260505210215 | 51 | 179 | 1.0 | 0.0 | 0.00 | 0.00 | 0.16 | 89 | 1009.0 |
| 20260505203209 | 51 | 190 | 1.0 | 0.0 | 0.00 | 0.00 | 0.16 | 88 | 1008.5 |
| 20260505200210 | 52 | 192 | 6.0 | 0.0 | 0.00 | 0.00 | 0.16 | 88 | 1008.4 |
| 20260505193209 | 52 | 192 | 6.0 | 0.0 | 0.00 | 0.00 | 0.16 | 88 | 1007.8 |
| 20260505190215 | 53 | 227 | 8.0 | 0.0 | 0.00 | 0.00 | 0.16 | 88 | 1007.9 |
| 20260505183212 | 53 | 188 | 6.0 | 0.0 | 0.00 | 0.00 | 0.16 | 90 | 1007.7 |
| 20260505180211 | 54 | 186 | 1.0 | 0.0 | 0.00 | 0.00 | 0.16 | 89 | 1007.8 |
| 20260505173210 | 54 | 188 | 4.0 | 0.0 | 0.00 | 0.00 | 0.16 | 88 | 1007.8 |
| 20260505170210 | 54 | 209 | 5.0 | 0.0 | 0.00 | 0.00 | 0.16 | 88 | 1007.8 |
| 20260505163211 | 54 | 213 | 2.0 | 0.0 | 0.00 | 0.00 | 0.16 | 89 | 1007.6 |
| 20260505153210 | 60 | 180 | 5.0 | 0.0 | 0.00 | 0.00 | 0.02 | 70 | 1006.8 |
| 20260505150215 | 60 | 120 | 4.0 | 0.0 | 0.00 | 0.00 | 0.02 | 69 | 1006.9 |
| 20260505140210 | 58 | 153 | 7.0 | 0.0 | 0.00 | 0.00 | 0.02 | 73 | 1007.2 |
| 20260505130210 | 56 | 141 | 8.0 | 0.0 | 0.00 | 0.00 | 0.02 | 82 | 1007.9 |
| 20260505123210 | 56 | 133 | 9.0 | 0.0 | 0.00 | 0.00 | 0.02 | 79 | 1008.1 |
| 20260505120210 | 56 | 142 | 3.0 | 0.0 | 0.00 | 0.00 | 0.02 | 82 | 1008.2 |
| 20260505113210 | 56 | 144 | 2.0 | 0.0 | 0.00 | 0.00 | 0.01 | 78 | 1008.1 |
| 20260505110211 | 58 | 155 | 6.0 | 0.0 | 0.00 | 0.00 | 0.00 | 81 | 1008.3 |
| 20260505100212 | 60 | 80 | 4.0 | 0.0 | 0.00 | 0.00 | 0.00 | 68 | 1008.3 |
| 20260505093212 | 60 | 0 | 4.0 | 0.0 | 0.00 | 0.00 | 0.00 | 68 | 1008.3 |
| 20260505090211 | 61 | 312 | 7.0 | 0.0 | 0.00 | 0.00 | 0.00 | 68 | 1008.4 |
| 20260505083211 | 60 | 315 | 4.0 | 0.0 | 0.00 | 0.00 | 0.00 | 66 | 1008.5 |
| 20260505080210 | 60 | 284 | 2.0 | 0.0 | 0.00 | 0.00 | 0.00 | 72 | 1008.7 |
| 20260505073210 | 56 | 263 | 2.0 | 0.0 | 0.00 | 0.00 | 0.00 | 82 | 1008.9 |
| 20260505070211 | 54 | 263 | 0.0 | 0.0 | 0.00 | 0.00 | 0.00 | 87 | 1009.1 |
| 20260505063211 | 53 | 263 | 0.0 | 0.0 | 0.00 | 0.00 | 0.00 | 86 | 1009.3 |
| 20260505060212 | 51 | 263 | 0.0 | 0.0 | 0.00 | 0.00 | 0.00 | 87 | 1009.1 |
| 20260505053211 | 50 | 263 | 1.0 | 0.0 | 0.00 | 0.00 | 0.00 | 90 | 1009.1 |
| 20260505050211 | 49 | 263 | 0.0 | 0.0 | 0.00 | 0.00 | 0.00 | 90 | 1009.4 |
| 20260505040211 | 49 | 263 | 1.0 | 0.0 | 0.00 | 0.00 | 0.00 | 89 | 1009.7 |
| 20260505033211 | 49 | 263 | 2.0 | 0.0 | 0.00 | 0.00 | 0.00 | 88 | 1009.7 |
| 20260505030213 | 49 | 263 | 0.0 | 0.0 | 0.00 | 0.00 | 0.00 | 87 | 1009.9 |
| 20260505023211 | 50 | 263 | 0.0 | 0.0 | 0.00 | 0.00 | 0.00 | 86 | 1010.1 |
| 20260505020211 | 51 | 263 | 0.0 | 0.0 | 0.00 | 0.00 | 0.00 | 85 | 1010.4 |
| 20260505013211 | 52 | 263 | 0.0 | 0.0 | 0.00 | 0.00 | 0.00 | 84 | 1010.6 |
| 20260505010211 | 52 | 263 | 0.0 | 0.0 | 0.00 | 0.00 | 0.00 | 84 | 1010.9 |
| 20260505003208 | 52 | 263 | 0.0 | 0.0 | 0.00 | 0.00 | 0.00 | 84 | 1011.4 |